Regional Weather Roundup
Issued by NWS

Home | Current Version | Previous Version | Text Only | Print | Product List | Glossary On
Versions: 1 2 3 4 5 6 7 8 9 10 11 12 13 14 15 16 17 18 19 20 21 22 23 24 25 26 27 28 29 30 31 32 33 34 35 36 37 38 39 40 41 42 43 44 45 46 47 48 49 50
000
ASUS42 KFFC 280403
RWRGA
WEATHER ROUNDUP FOR GEORGIA
NATIONAL WEATHER SERVICE PEACHTREE CITY GA
1100 PM EST TUE JAN 27 2015

NOTE: "FAIR" INDICATES FEW OR NO CLOUDS BELOW 12,000 FEET WITH NO
SIGNIFICANT WEATHER AND/OR OBSTRUCTIONS TO VISIBILITY.

* = USE WITH CAUTION. THE STATIONS MARKED WITH AN ASTERISK MAY NOT
REPORT WEATHER SUCH AS PRECIPITATION, FOG, OR THUNDER AND ARE NOT
QUALITY CONTROLLED BY NWS.

THE REMARK "TC" DENOTES TEMPERATURE READING IN DEGREES CELSIUS.

GAZ001>058-280500-
NORTH GEORGIA

CITY           SKY/WX    TMP DP  RH WIND       PRES   REMARKS
ATLANTA        CLEAR     37  28  70 N10       30.08S WCI  30
ATHENS         CLEAR     37  26  64 NW9       30.06R WCI  30
CHAMBLEE       CLEAR     36  27  69 NW12      30.09S WCI  28
PEACHTREE CITY CLEAR     36  30  79 NW8       30.11R WCI  30
ROME           CLOUDY    39  29  67 N10       30.14R WCI  32
WEST ATLANTA   CLEAR     37  28  70 N8        30.10R WCI  31
GAINESVILLE    CLOUDY    36  26  67 NW15G24   30.06R WCI  27
CARTERSVILLE   CLOUDY    36  27  69 VRB6      30.14R WCI  31


CITY           SKY/WX    TMP DP  RH WIND       PRES   REMARKS
DALTON*        CLOUDY    36  30  80 N13G21    30.15R WCI  27
MARIETTA       PTCLDY    36  28  75 NW8       30.09R WCI  29
KENNESAW*      PTCLDY   N/A N/A N/A N6        30.11R
$$

GAZ059>098-102>109-280500-
CENTRAL GEORGIA

CITY           SKY/WX    TMP DP  RH WIND       PRES   REMARKS
AUGUSTA-BUSH   CLEAR     41  27  57 NW8       30.05R
AUGUSTA-DANIEL CLEAR     42  27  55 NW7       30.04R
COLUMBUS       CLEAR     44  29  55 N5        30.11R
MACON          CLEAR     39  30  70 NW5       30.09R
ROBINS AFB     CLEAR     39  30  71 N9        30.09R WCI  33


CITY           SKY/WX    TMP DP  RH WIND       PRES   REMARKS
LAGRANGE*      CLEAR     42  33  70 N3        30.12R
SYLVANIA*      CLEAR     42  32  68 NW9       30.04R
MILLEDGEVILLE* CLEAR     41  32  70 NW7       30.07R
$$

GAZ099>101-110>166-280500-
SOUTH GEORGIA

CITY           SKY/WX    TMP DP  RH WIND       PRES   REMARKS
SAVANNAH       CLEAR     42  30  62 NW10      30.03R
VALDOSTA       CLEAR     38  34  85 CALM      30.08R
ALMA           CLEAR     36  31  82 N3        30.06R
ST SIMONS      CLEAR     43  34  70 W5        30.05R
FT STEWART     CLEAR     40  31  71 W6        30.03R
ALBANY         CLEAR     38  32  79 CALM      30.12R
HUNTER AFB     CLEAR     43  31  64 NW12      30.01R
MOODY AFB      CLEAR     45  33  62 W3        30.07R
BRUNSWICK      CLEAR     39  34  81 W3        30.06R


CITY           SKY/WX    TMP DP  RH WIND       PRES   REMARKS
BAINBRIDGE*    CLEAR     54  36  50 N7        30.10R
MOULTRIE*      CLEAR     41  36  81 CALM      30.10R
VIDALIA*       CLEAR     43  32  65 NW7       30.06R
WAYCROSS*      CLEAR     43  36  75 W5        30.06R
DOUGLAS*       CLEAR     43  32  65 N3        30.08R
$$


USA.gov is the U.S. government's official web portal to all federal, state and local government web resources and services.